FW8256 Weather Reports


time (UTC)temp
C
wind
direction
speed
KPH
gust
KPH
rain 1hr
cm
rain 24hr
cm
rain mn
cm
humidity
%
barometer
mb
20260906204606 38 130 6.4 14.5 0.00 0.00 0.00 34 1008.7
20260906203059 38 180 4.8 12.9 0.00 0.00 0.00 32 1008.9
20260906201606 38 150 1.6 16.1 0.00 0.00 0.00 34 1009.1
20260906200051 38 113 4.8 11.3 0.00 0.00 0.00 34 1009.3
20260906194551 38 185 3.2 11.3 0.00 0.00 0.00 36 1009.5
20260906193048 38 154 4.8 12.9 0.00 0.00 0.00 37 1009.7
20260906191546 38 148 3.2 11.3 0.00 0.00 0.00 38 1009.9
20260906190045 38 174 6.4 14.5 0.00 0.00 0.00 39 1010.1
20260906184552 38 173 6.4 11.3 0.00 0.00 0.00 38 1010.3
20260906183042 37 158 1.6 11.3 0.00 0.00 0.00 40 1010.5
20260906181538 37 255 3.2 14.5 0.00 0.00 0.00 41 1010.7
20260906180055 37 161 3.2 11.3 0.00 0.00 0.00 43 1010.9
20260906174537 36 146 3.2 12.9 0.00 0.00 0.00 43 1011.2
20260906173034 36 117 4.8 11.3 0.00 0.00 0.00 43 1011.5
20260906171532 36 156 4.8 12.9 0.00 0.00 0.00 43 1011.7
20260906170029 36 123 3.2 9.7 0.00 0.00 0.00 45 1012.0
20260906164526 35 177 3.2 6.4 0.00 0.00 0.00 46 1012.1
20260906163023 33 156 3.2 9.7 0.00 0.00 0.00 48 1012.3
20260906161523 34 198 1.6 8.0 0.00 0.00 0.00 47 1012.3
20260906160015 34 244 3.2 9.7 0.00 0.00 0.00 48 1012.2
20260906154517 33 221 1.6 11.3 0.00 0.00 0.00 50 1012.1
20260906153011 33 277 3.2 9.7 0.00 0.00 0.00 50 1012.0
20260906151509 33 243 0.0 8.0 0.00 0.00 0.00 52 1012.1
20260906150003 32 260 1.6 6.4 0.00 0.00 0.00 54 1011.9
20260906144559 31 264 3.2 6.4 0.00 0.00 0.00 56 1011.9
20260906143058 31 246 1.6 11.3 0.00 0.00 0.00 57 1011.9
20260906141550 30 256 3.2 9.7 0.00 0.00 0.00 58 1011.9
20260906140049 29 252 1.6 6.4 0.00 0.00 0.00 59 1011.8
20260906134548 28 231 1.6 6.4 0.00 0.00 0.00 61 1011.7
20260906133049 27 233 1.6 8.0 0.00 0.00 0.00 63 1011.7
20260906131546 27 188 0.0 3.2 0.00 0.00 0.00 64 1011.6
20260906130045 26 360 0.0 3.2 0.00 0.00 0.00 65 1011.4
20260906124542 26 360 0.0 1.6 0.00 0.00 0.00 66 1011.3
20260906123040 26 360 0.0 3.2 0.00 0.00 0.00 65 1011.0
20260906121540 26 360 0.0 4.8 0.00 0.00 0.00 65 1010.9
20260906120036 26 360 0.0 3.2 0.00 0.00 0.00 64 1010.7
20260906114535 26 360 0.0 4.8 0.00 0.00 0.00 63 1010.7
20260906113037 26 360 0.0 6.4 0.00 0.00 0.00 62 1010.5
20260906111532 26 360 1.6 8.0 0.00 0.00 0.00 62 1010.2
20260906110031 26 360 1.6 6.4 0.00 0.00 0.00 62 1010.2
20260906104535 26 360 0.0 6.4 0.00 0.00 0.00 62 1010.1
20260906103029 26 360 1.6 4.8 0.00 0.00 0.00 62 1010.0
20260906101527 27 360 0.0 4.8 0.00 0.00 0.00 61 1010.0
20260906100027 27 360 1.6 4.8 0.00 0.00 0.00 61 1010.0
20260906094535 27 360 0.0 4.8 0.00 0.00 0.00 61 1009.9
20260906093033 27 360 0.0 3.2 0.00 0.00 0.00 60 1010.0
20260906091520 27 360 0.0 0.0 0.00 0.00 0.00 59 1010.0
20260906090020 27 360 0.0 0.0 0.00 0.00 0.00 59 1009.9
20260906084527 27 360 0.0 3.2 0.00 0.00 0.00 59 1009.9
20260906083019 27 360 0.0 4.8 0.00 0.00 0.00 59 1009.8
20260906081519 27 360 0.0 4.8 0.00 0.00 0.00 59 1009.7
20260906080024 27 360 0.0 3.2 0.00 0.00 0.00 58 1009.8
20260906074513 28 360 0.0 3.2 0.00 0.00 0.00 57 1009.7
20260906073113 28 360 0.0 3.2 0.00 0.00 0.00 57 1009.7
20260906071512 28 360 0.0 3.2 0.00 0.00 0.00 57 1009.7
20260906070010 28 360 0.0 3.2 0.00 0.00 0.00 57 1009.9
20260906064513 28 360 0.0 1.6 0.00 0.00 0.00 57 1009.8
20260906063005 28 360 0.0 1.6 0.00 0.00 0.00 55 1009.8
20260906061503 29 360 0.0 6.4 0.00 0.00 0.00 54 1009.8
20260906060002 29 360 1.6 4.8 0.00 0.00 0.00 54 1009.8
20260906054501 29 360 0.0 3.2 0.00 0.00 0.00 54 1009.7
20260906053059 30 360 0.0 3.2 0.00 0.00 0.00 53 1009.7
20260906051606 30 360 0.0 3.2 0.00 0.00 0.00 52 1009.5
20260906050049 30 360 1.6 3.2 0.00 0.00 0.00 51 1009.4
20260906044549 30 360 0.0 4.8 0.00 0.00 0.00 51 1009.4
20260906043032 30 360 0.0 3.2 0.00 0.00 0.00 51 1009.5
20260906041529 31 360 0.0 3.2 0.00 0.00 0.00 50 1009.6
20260906040031 31 360 0.0 8.0 0.00 0.00 0.00 50 1009.6
20260906034536 31 360 1.6 6.4 0.00 0.00 0.00 50 1009.6
20260906033029 31 360 1.6 6.4 0.00 0.00 0.00 51 1009.4
20260906031527 31 360 0.0 3.2 0.00 0.00 0.00 51 1009.3
20260906030027 31 360 0.0 3.2 0.00 0.00 0.00 50 1009.4
20260906024526 32 360 1.6 4.8 0.00 0.00 0.00 49 1009.2
20260906023026 32 360 1.6 6.4 0.00 0.00 0.00 48 1009.1
20260906021525 32 360 1.6 6.4 0.00 0.00 0.00 47 1008.9
20260906020025 32 360 1.6 4.8 0.00 0.00 0.00 46 1008.7
20260906014538 33 360 0.0 3.2 0.00 0.00 0.00 46 1008.6
20260906013024 33 360 0.0 1.6 0.00 0.00 0.00 46 1008.5
20260906011535 33 360 0.0 3.2 0.00 0.00 0.00 45 1008.2
20260906010023 34 360 0.0 4.8 0.00 0.00 0.00 43 1008.2
20260906004534 35 360 3.2 9.7 0.00 0.00 0.00 42 1008.1
20260906003034 36 176 1.6 11.3 0.00 0.00 0.00 40 1007.9
20260906001525 36 165 0.0 8.0 0.00 0.00 0.00 39 1007.9
20260906000021 36 155 3.2 11.3 0.00 0.00 0.00 38 1007.8
20260905234520 37 143 4.8 11.3 0.00 0.00 0.00 37 1007.7
20260905233020 37 187 3.2 11.3 0.00 0.00 0.00 37 1007.7
20260905231519 37 167 4.8 11.3 0.00 0.00 0.00 37 1007.6
20260905230018 37 142 3.2 11.3 0.00 0.00 0.00 36 1007.6
20260905224526 37 146 3.2 12.9 0.00 0.00 0.00 36 1007.7
20260905223015 37 127 8.0 17.7 0.00 0.00 0.00 36 1007.5
20260905221515 37 145 4.8 12.9 0.00 0.00 0.00 35 1007.6
20260905220015 37 151 6.4 12.9 0.00 0.00 0.00 36 1007.7
20260905214511 37 151 6.4 12.9 0.00 0.00 0.00 36 1007.9
20260905213009 37 145 6.4 16.1 0.00 0.00 0.00 36 1008.0
20260905211505 37 157 6.4 11.3 0.00 0.00 0.00 37 1008.2
20260905210009 37 133 6.4 14.5 0.00 0.00 0.00 37 1008.3